This is the latest recevied weather packets stored in our database for station/object KC6OYN. If no packets are shown the sender has not sent any weather packets the latest 10 day(s).
| Time | Temp. | Humidity | Pressure | Rain* | Wind** | Luminosity | Snow |
|---|---|---|---|---|---|---|---|
| 1777397665 | 14.44° C | 65% | 1027.6 hPa | 0 mm | - | - | - |
| 1777397424 | 14.44° C | 65% | 1027.6 hPa | 0 mm | - | - | - |
| 1777397183 | 13.89° C | 64% | 1027.6 hPa | 0 mm | - | - | - |
| 1777396943 | 13.89° C | 64% | 1027.6 hPa | 0 mm | - | - | - |
| 1777396702 | 14.44° C | 64% | 1027.5 hPa | 0 mm | - | - | - |
| 1777396461 | 14.44° C | 64% | 1027.5 hPa | 0 mm | - | - | - |
| 1777396220 | 15° C | 66% | 1027.6 hPa | 0 mm | - | - | - |
| 1777395979 | 15° C | 67% | 1027.7 hPa | 0 mm | - | - | - |
| 1777395738 | 15° C | 67% | 1027.7 hPa | 0 mm | - | - | - |
| 1777395497 | 15.56° C | 67% | 1027.7 hPa | 0 mm | - | - | - |
| 1777395258 | 15.56° C | 67% | 1027.7 hPa | 0 mm | - | - | - |
| 1777395015 | 15.56° C | 68% | 1027.7 hPa | 0 mm | - | - | - |
| 1777394774 | 15.56° C | 68% | 1027.7 hPa | 0 mm | - | - | - |
| 1777394533 | 16.11° C | 68% | 1027.8 hPa | 0 mm | - | - | - |
| 1777394293 | 15.56° C | 70% | 1027.8 hPa | 0 mm | - | - | - |
| 1777394052 | 15.56° C | 70% | 1027.9 hPa | 0 mm | - | - | - |
| 1777393811 | 14.44° C | 70% | 1027.9 hPa | 0 mm | - | - | - |
| 1777393570 | 14.44° C | 70% | 1027.7 hPa | 0 mm | - | - | - |
| 1777393329 | 13.89° C | 70% | 1027.8 hPa | 0 mm | - | - | - |
| 1777393088 | 13.33° C | 70% | 1027.8 hPa | 0 mm | - | - | - |
| 1777392847 | 12.78° C | 70% | 1027.7 hPa | 0 mm | - | - | - |
| 1777392606 | 12.78° C | 70% | 1027.7 hPa | 0 mm | - | - | - |
| 1777392365 | 12.78° C | 70% | 1027.6 hPa | 0 mm | - | - | - |
| 1777392172 | 12.78° C | 71% | 1027.7 hPa | 0 mm | - | - | - |
| 1777391931 | 12.22° C | 71% | 1027.6 hPa | 0 mm | - | - | - |
* Rain since midnight (hover to see other rain measurements)
** Current wind speed in m/s (hover to see current wind gust speed)